EW2575 Weather Reports


Display with metric or nautical units.
time (UTC)temp
F
wind
direction
speed
MPH
gust
MPH
rain 1hr
in
rain 24hr
in
rain mn
in
humidity
%
barometer
mb
20260831033043 65 110 6.0 10.0 0.00 0.00 0.00 83 1018.1
20260831032546 65 117 7.0 10.0 0.00 0.00 0.00 82 1018.1
20260831032042 65 126 7.0 9.0 0.00 0.00 0.00 83 1018.1
20260831031546 65 102 6.0 8.0 0.00 0.00 0.00 83 1018.1
20260831031041 65 117 4.0 9.0 0.00 0.00 0.00 83 1018.2
20260831030544 65 119 4.0 9.0 0.00 0.00 0.00 83 1018.1
20260831030041 65 124 6.0 10.0 0.00 0.00 0.00 83 1018.2
20260831025540 65 120 7.0 10.0 0.00 0.00 0.00 83 1018.2
20260831025040 65 111 7.0 10.0 0.00 0.00 0.00 83 1018.3
20260831024606 65 108 6.0 10.0 0.00 0.00 0.00 83 1018.2
20260831024039 65 105 7.0 9.0 0.00 0.00 0.00 83 1018.2
20260831023539 65 105 7.0 10.0 0.00 0.00 0.00 83 1018.2
20260831023039 65 117 7.0 12.0 0.00 0.00 0.00 83 1018.2
20260831022537 65 113 8.0 11.0 0.00 0.00 0.00 82 1018.2
20260831022037 65 126 7.0 9.0 0.00 0.00 0.00 83 1018.3
20260831021537 65 122 5.0 9.0 0.00 0.00 0.00 83 1018.3
20260831021037 65 119 6.0 9.0 0.00 0.00 0.00 82 1018.2
20260831020539 65 101 6.0 9.0 0.00 0.00 0.00 82 1018.2
20260831020059 65 110 7.0 9.0 0.00 0.00 0.00 83 1018.2
20260831015537 65 107 6.0 11.0 0.00 0.00 0.00 84 1018.3
20260831015035 65 91 8.0 13.0 0.00 0.00 0.00 83 1018.3
20260831014545 65 96 9.0 13.0 0.00 0.00 0.00 84 1018.4
20260831014034 65 114 7.0 10.0 0.00 0.00 0.00 85 1018.4
20260831013534 65 118 7.0 10.0 0.00 0.00 0.00 85 1018.5
20260831013034 65 109 8.0 10.0 0.00 0.00 0.00 85 1018.5
20260831012532 65 117 6.0 8.0 0.00 0.00 0.00 85 1018.4
20260831012030 65 103 6.0 8.0 0.00 0.00 0.00 85 1018.4
20260831011531 65 127 6.0 8.0 0.00 0.00 0.00 85 1018.3
20260831011030 66 123 5.0 8.0 0.00 0.00 0.00 85 1018.3
20260831010528 66 118 6.0 8.0 0.00 0.00 0.00 85 1018.4
20260831010040 66 109 6.0 8.0 0.00 0.00 0.00 85 1018.5
20260831005526 66 111 5.0 7.0 0.00 0.00 0.00 85 1018.6
20260831005025 66 120 4.0 7.0 0.00 0.00 0.00 84 1018.8
20260831004524 67 109 4.0 7.0 0.00 0.00 0.00 85 1018.8
20260831004023 67 115 4.0 6.0 0.00 0.00 0.00 85 1018.8
20260831003528 67 110 4.0 6.0 0.00 0.00 0.00 85 1018.9
20260831003022 67 117 3.0 8.0 0.00 0.00 0.00 84 1018.9
20260831002522 67 127 5.0 8.0 0.00 0.00 0.00 84 1019.0
20260831002020 67 126 5.0 8.0 0.00 0.00 0.00 84 1019.0
20260831001533 67 128 5.0 7.0 0.00 0.00 0.00 85 1019.1
20260831001019 67 117 4.0 7.0 0.00 0.00 0.00 85 1019.2
20260831000519 67 101 3.0 6.0 0.00 0.00 0.00 86 1019.2
20260831000018 67 112 2.0 4.0 0.00 0.00 0.00 86 1019.1
20260830235521 67 117 1.0 4.0 0.00 0.00 0.00 86 1019.1
20260830235018 67 123 2.0 6.0 0.00 0.00 0.00 86 1019.2
20260830234535 67 123 2.0 6.0 0.00 0.00 0.00 87 1019.1
20260830234017 67 107 2.0 4.0 0.00 0.00 0.00 87 1019.2
20260830233517 67 119 2.0 4.0 0.00 0.00 0.00 87 1019.1
20260830233016 67 123 2.0 4.0 0.00 0.00 0.00 87 1019.1
20260830232516 67 120 2.0 4.0 0.00 0.00 0.00 88 1019.1
20260830232015 67 120 1.0 2.0 0.00 0.00 0.00 89 1019.1
20260830231613 67 120 1.0 3.0 0.00 0.00 0.00 89 1019.2
20260830231013 67 120 1.0 3.0 0.00 0.00 0.00 89 1019.2
20260830230515 67 106 1.0 3.0 0.00 0.00 0.00 90 1019.2
20260830230028 67 132 1.0 4.0 0.00 0.00 0.00 90 1019.2
20260830225511 67 132 3.0 4.0 0.00 0.00 0.00 91 1019.3
20260830225015 67 128 2.0 4.0 0.00 0.00 0.00 91 1019.3
20260830224516 67 294 0.0 0.0 0.00 0.00 0.00 92 1019.2
20260830224010 67 295 0.0 0.0 0.00 0.00 0.00 92 1019.2
20260830223510 68 295 0.0 0.0 0.00 0.00 0.00 92 1019.2
20260830223017 68 295 0.0 2.0 0.00 0.00 0.00 92 1019.2
20260830222508 68 295 1.0 2.0 0.00 0.00 0.00 92 1019.1
20260830222011 68 295 0.0 2.0 0.00 0.00 0.00 93 1019.1
20260830221508 68 295 0.0 3.0 0.00 0.00 0.00 92 1019.0
20260830221008 68 295 1.0 3.0 0.00 0.00 0.00 92 1019.1
20260830220508 68 295 0.0 2.0 0.00 0.00 0.00 93 1019.2
20260830220023 68 295 0.0 3.0 0.00 0.00 0.00 92 1019.1
20260830215508 68 295 0.0 2.0 0.00 0.00 0.00 92 1019.0
20260830215009 68 295 0.0 0.0 0.00 0.00 0.00 92 1019.0
20260830214507 68 295 0.0 0.0 0.00 0.00 0.00 92 1019.0
20260830214006 68 295 0.0 2.0 0.00 0.00 0.00 92 1019.0
20260830213506 68 295 0.0 3.0 0.00 0.00 0.00 92 1018.9
20260830213006 68 295 1.0 3.0 0.00 0.00 0.00 92 1018.8
20260830212505 68 295 0.0 2.0 0.00 0.00 0.00 92 1018.8
20260830212008 68 295 0.0 3.0 0.00 0.00 0.00 92 1018.7
20260830211505 67 295 1.0 4.0 0.00 0.00 0.00 92 1018.7
20260830211005 68 295 2.0 4.0 0.00 0.00 0.00 92 1018.5
20260830210504 68 295 2.0 4.0 0.00 0.00 0.00 92 1018.4
20260830210005 68 295 2.0 4.0 0.00 0.00 0.00 91 1018.3
20260830205504 68 295 0.0 0.0 0.00 0.00 0.00 91 1018.2
20260830205004 68 295 0.0 0.0 0.00 0.00 0.00 91 1018.0
20260830204509 68 295 0.0 0.0 0.00 0.00 0.00 91 1018.0
20260830204004 68 295 0.0 0.0 0.00 0.00 0.00 90 1017.9
20260830203504 68 294 0.0 3.0 0.00 0.00 0.00 90 1017.9
20260830203004 68 295 0.0 3.0 0.00 0.00 0.00 90 1017.9
20260830202503 68 295 1.0 3.0 0.00 0.00 0.00 89 1018.0
20260830202002 68 295 2.0 3.0 0.00 0.00 0.00 88 1017.9
20260830201508 68 294 2.0 3.0 0.00 0.00 0.00 88 1017.8
20260830201004 69 294 2.0 4.0 0.00 0.00 0.00 87 1017.7
20260830200502 69 294 1.0 4.0 0.00 0.00 0.00 87 1017.6
20260830200001 69 295 1.0 3.0 0.00 0.00 0.00 86 1017.4
20260830195502 69 294 1.0 3.0 0.00 0.00 0.00 85 1017.4
20260830195001 69 294 1.0 6.0 0.00 0.00 0.00 85 1017.4
20260830194504 69 273 3.0 6.0 0.00 0.00 0.00 84 1017.4
20260830194101 70 284 1.0 4.0 0.00 0.00 0.00 84 1017.5
20260830193601 70 284 3.0 7.0 0.00 0.00 0.00 84 1017.4
20260830193101 70 312 2.0 7.0 0.00 0.00 0.00 83 1017.4
20260830192600 70 262 2.0 4.0 0.00 0.00 0.00 83 1017.4
20260830192100 70 262 1.0 6.0 0.00 0.00 0.00 83 1017.5
20260830191601 70 300 2.0 7.0 0.00 0.00 0.00 83 1017.4
20260830191059 70 318 2.0 7.0 0.00 0.00 0.00 83 1017.4
20260830190559 71 270 3.0 8.0 0.00 0.00 0.00 84 1017.5
20260830190059 70 247 2.0 8.0 0.00 0.00 0.00 83 1017.4
20260830185559 71 273 4.0 9.0 0.00 0.00 0.00 83 1017.4
20260830185058 71 278 4.0 10.0 0.00 0.00 0.00 83 1017.4
20260830184558 71 284 5.0 10.0 0.00 0.00 0.00 83 1017.4
20260830184102 71 296 3.0 9.0 0.00 0.00 0.00 83 1017.3
20260830183558 71 297 6.0 9.0 0.00 0.00 0.00 83 1017.3
20260830183100 72 273 3.0 7.0 0.00 0.00 0.00 83 1017.2
20260830182557 72 301 1.0 8.0 0.00 0.00 0.00 83 1017.3
20260830182100 72 312 3.0 8.0 0.00 0.00 0.00 83 1017.2
20260830181608 72 286 3.0 9.0 0.00 0.00 0.00 83 1017.2
20260830181057 72 277 4.0 8.0 0.00 0.00 0.00 82 1017.2
20260830180556 72 277 4.0 8.0 0.00 0.00 0.00 82 1017.1
20260830180107 72 273 5.0 11.0 0.00 0.00 0.00 81 1017.2
20260830175556 72 281 4.0 11.0 0.00 0.00 0.00 81 1017.2
20260830175056 72 302 5.0 11.0 0.00 0.00 0.00 81 1017.1
20260830174602 72 261 8.0 10.0 0.00 0.00 0.00 80 1017.1
20260830174100 72 236 5.0 10.0 0.00 0.00 0.00 80 1017.1
20260830173555 72 276 5.0 10.0 0.00 0.00 0.00 81 1017.2
20260830173109 72 227 5.0 11.0 0.00 0.00 0.00 80 1017.2
20260830172554 73 259 4.0 9.0 0.00 0.00 0.00 80 1017.2
20260830172055 73 279 3.0 10.0 0.00 0.00 0.00 80 1017.2
20260830171558 73 318 4.0 10.0 0.00 0.00 0.00 81 1017.2
20260830171054 72 288 6.0 12.0 0.00 0.00 0.00 83 1017.2
20260830170554 72 223 6.0 12.0 0.00 0.00 0.00 82 1017.2
20260830170053 73 237 4.0 12.0 0.00 0.00 0.00 82 1017.2
20260830165553 73 245 7.0 12.0 0.00 0.00 0.00 84 1017.2
20260830165052 72 205 4.0 9.0 0.00 0.00 0.00 84 1017.3
20260830164553 72 236 5.0 11.0 0.00 0.00 0.00 85 1017.3
20260830164053 72 265 6.0 10.0 0.00 0.00 0.00 85 1017.4
20260830163552 71 237 7.0 9.0 0.00 0.00 0.00 86 1017.4
20260830163058 71 257 4.0 9.0 0.00 0.00 0.00 86 1017.4
20260830162551 71 190 6.0 11.0 0.00 0.00 0.00 86 1017.4
20260830162050 71 253 6.0 11.0 0.00 0.00 0.00 86 1017.5
20260830161550 71 246 5.0 8.0 0.00 0.00 0.00 87 1017.4
20260830161050 70 305 3.0 9.0 0.00 0.00 0.00 87 1017.5
20260830160550 70 250 4.0 10.0 0.00 0.00 0.00 87 1017.6
20260830160050 70 264 4.0 9.0 0.00 0.00 0.00 87 1017.7
20260830155549 70 248 6.0 9.0 0.00 0.00 0.00 87 1017.9
20260830155051 70 290 4.0 9.0 0.00 0.00 0.00 87 1017.8
20260830154549 70 281 5.0 13.0 0.00 0.00 0.00 87 1018.1
20260830154052 70 266 6.0 13.0 0.00 0.00 0.00 86 1018.2
20260830153549 70 275 6.0 11.0 0.00 0.00 0.00 86 1018.2
20260830153048 70 260 5.0 10.0 0.00 0.00 0.00 85 1018.3
20260830152547 70 262 5.0 10.0 0.00 0.00 0.00 85 1018.4
20260830152048 71 252 6.0 13.0 0.00 0.00 0.00 85 1018.4
20260830151553 71 262 7.0 13.0 0.00 0.00 0.00 84 1018.2
20260830151047 71 272 7.0 13.0 0.00 0.00 0.00 82 1018.3
20260830150551 72 240 10.0 13.0 0.00 0.00 0.00 81 1018.3
20260830150049 72 279 9.0 13.0 0.00 0.00 0.00 80 1018.3
20260830145546 72 228 8.0 11.0 0.00 0.00 0.00 81 1018.2
20260830145145 72 285 5.0 11.0 0.00 0.00 0.00 80 1018.3
20260830144546 72 230 7.0 11.0 0.00 0.00 0.00 80 1018.4
20260830144047 72 275 8.0 13.0 0.00 0.00 0.00 80 1018.4
20260830143546 71 230 4.0 14.0 0.00 0.00 0.00 80 1018.5
20260830143046 72 219 8.0 14.0 0.00 0.00 0.00 79 1018.4
20260830142546 72 267 3.0 13.0 0.00 0.00 0.00 78 1018.5
20260830142044 73 360 5.0 9.0 0.00 0.00 0.00 79 1018.5
20260830141547 72 276 6.0 9.0 0.00 0.00 0.00 79 1018.5
20260830141045 71 196 3.0 11.0 0.00 0.00 0.00 80 1018.6
20260830140548 71 250 6.0 11.0 0.00 0.00 0.00 80 1018.6
20260830140044 71 297 4.0 11.0 0.00 0.00 0.00 81 1018.8
20260830135543 71 279 4.0 11.0 0.00 0.00 0.00 81 1018.6
20260830135045 71 276 7.0 11.0 0.00 0.00 0.00 82 1018.6
20260830134544 71 343 3.0 9.0 0.00 0.00 0.00 82 1018.6
20260830134042 71 251 5.0 10.0 0.00 0.00 0.00 82 1018.7
20260830133541 71 280 3.0 10.0 0.00 0.00 0.00 83 1018.6
20260830133045 71 280 6.0 11.0 0.00 0.00 0.00 82 1018.8
20260830132541 72 247 6.0 10.0 0.00 0.00 0.00 81 1018.9
20260830132043 72 207 6.0 12.0 0.00 0.00 0.00 81 1018.9
20260830131540 72 242 8.0 10.0 0.00 0.00 0.00 81 1018.9
20260830131041 71 231 6.0 14.0 0.00 0.00 0.00 79 1019.0
20260830130541 72 257 5.0 14.0 0.00 0.00 0.00 79 1019.0
20260830130045 73 343 2.0 11.0 0.00 0.00 0.00 79 1018.9
20260830125539 72 281 4.0 12.0 0.00 0.00 0.00 79 1019.0
20260830125038 72 259 6.0 12.0 0.00 0.00 0.00 78 1019.0
20260830124539 72 279 4.0 13.0 0.00 0.00 0.00 79 1019.0
20260830124041 73 227 7.0 13.0 0.00 0.00 0.00 78 1019.1
20260830123537 73 240 4.0 16.0 0.00 0.00 0.00 79 1019.0
20260830123038 72 291 9.0 16.0 0.00 0.00 0.00 78 1019.1
20260830122535 72 276 6.0 12.0 0.00 0.00 0.00 78 1019.0
20260830122034 72 259 4.0 12.0 0.00 0.00 0.00 78 1019.0
20260830121535 73 282 7.0 13.0 0.00 0.00 0.00 78 1018.9
20260830121033 72 251 8.0 13.0 0.00 0.00 0.00 77 1018.9
20260830120535 72 217 7.0 11.0 0.00 0.00 0.00 77 1019.0
20260830120036 72 279 4.0 11.0 0.00 0.00 0.00 77 1019.1
20260830115536 72 304 4.0 13.0 0.00 0.00 0.00 78 1019.0
20260830115030 72 237 7.0 13.0 0.00 0.00 0.00 77 1019.0
20260830114530 72 298 4.0 12.0 0.00 0.00 0.00 77 1019.0
20260830114031 72 287 2.0 10.0 0.00 0.00 0.00 77 1019.0
20260830113527 73 261 5.0 11.0 0.00 0.00 0.00 77 1019.1
20260830113031 72 200 5.0 11.0 0.00 0.00 0.00 77 1019.0
20260830112525 72 247 1.0 11.0 0.00 0.00 0.00 79 1019.0
20260830112029 72 254 5.0 11.0 0.00 0.00 0.00 78 1019.1
20260830111528 72 277 7.0 10.0 0.00 0.00 0.00 78 1019.1
20260830111024 72 302 4.0 11.0 0.00 0.00 0.00 78 1019.1
20260830110523 72 256 5.0 11.0 0.00 0.00 0.00 78 1019.1
20260830110022 72 264 2.0 10.0 0.00 0.00 0.00 79 1019.1
20260830105524 71 318 3.0 11.0 0.00 0.00 0.00 78 1019.0
20260830105020 71 307 2.0 12.0 0.00 0.00 0.00 79 1019.0
20260830104520 71 276 6.0 10.0 0.00 0.00 0.00 78 1019.0
20260830104018 72 264 6.0 10.0 0.00 0.00 0.00 78 1019.0
20260830103517 72 318 1.0 8.0 0.00 0.00 0.00 78 1019.0
20260830103016 71 292 4.0 10.0 0.00 0.00 0.00 78 1018.9
20260830102514 71 200 5.0 10.0 0.00 0.00 0.00 78 1018.9
20260830102012 71 254 5.0 8.0 0.00 0.00 0.00 79 1018.9
20260830101511 71 235 5.0 8.0 0.00 0.00 0.00 79 1018.8
20260830101011 71 219 1.0 7.0 0.00 0.00 0.00 79 1018.8
20260830100509 71 256 3.0 9.0 0.00 0.00 0.00 80 1018.9
20260830100012 71 269 3.0 9.0 0.00 0.00 0.00 80 1018.9
20260830095512 70 252 3.0 10.0 0.00 0.00 0.00 80 1018.8
20260830095008 70 278 6.0 11.0 0.00 0.00 0.00 80 1018.8
20260830094510 70 277 6.0 11.0 0.00 0.00 0.00 80 1018.7
20260830094005 70 244 4.0 9.0 0.00 0.00 0.00 79 1018.5
20260830093504 70 229 3.0 5.0 0.00 0.00 0.00 79 1018.5
20260830093003 70 178 3.0 5.0 0.00 0.00 0.00 80 1018.6
20260830092501 70 170 2.0 9.0 0.00 0.00 0.00 81 1018.6
20260830092001 70 224 6.0 10.0 0.00 0.00 0.00 81 1018.5
20260830091600 70 277 5.0 10.0 0.00 0.00 0.00 82 1018.5
20260830091100 70 223 1.0 4.0 0.00 0.00 0.00 82 1018.4
20260830090556 69 246 0.0 4.0 0.00 0.00 0.00 83 1018.4
20260830090055 69 185 1.0 6.0 0.00 0.00 0.00 83 1018.4
20260830085559 69 180 3.0 6.0 0.00 0.00 0.00 82 1018.4
20260830085053 69 277 2.0 4.0 0.00 0.00 0.00 81 1018.4
20260830084553 69 167 1.0 3.0 0.00 0.00 0.00 81 1018.3
20260830084051 69 69 0.0 2.0 0.00 0.00 0.00 82 1018.4
20260830083549 68 96 0.0 6.0 0.00 0.00 0.00 82 1018.4
20260830083058 67 105 2.0 6.0 0.00 0.00 0.00 81 1018.4
20260830082545 67 120 5.0 7.0 0.00 0.00 0.00 81 1018.4
20260830082044 66 121 5.0 8.0 0.00 0.00 0.00 81 1018.3
20260830081542 66 119 6.0 9.0 0.00 0.00 0.00 81 1018.4
20260830081041 65 134 6.0 9.0 0.00 0.00 0.00 82 1018.3
20260830080539 65 117 5.0 8.0 0.00 0.00 0.00 83 1018.3
20260830080047 64 122 5.0 8.0 0.00 0.00 0.00 83 1018.3
20260830075536 64 124 6.0 9.0 0.00 0.00 0.00 84 1018.3
20260830075036 64 117 7.0 9.0 0.00 0.00 0.00 84 1018.2
20260830074535 64 111 7.0 9.0 0.00 0.00 0.00 84 1017.9
20260830074033 64 113 5.0 8.0 0.00 0.00 0.00 85 1018.0
20260830073532 63 124 6.0 8.0 0.00 0.00 0.00 85 1017.9
20260830073031 63 121 6.0 8.0 0.00 0.00 0.00 85 1017.9
20260830072530 63 119 5.0 8.0 0.00 0.00 0.00 85 1017.8
20260830072030 63 111 6.0 8.0 0.00 0.00 0.00 85 1017.7
20260830071529 63 113 6.0 8.0 0.00 0.00 0.00 84 1017.8
20260830071027 64 111 4.0 8.0 0.00 0.00 0.00 85 1017.8
20260830070526 64 121 3.0 8.0 0.00 0.00 0.00 86 1017.8
20260830070035 64 113 3.0 9.0 0.00 0.00 0.00 86 1017.8
20260830065531 64 138 3.0 9.0 0.00 0.00 0.00 85 1017.7
20260830065026 63 103 5.0 9.0 0.00 0.00 0.00 84 1017.6
20260830064538 63 123 7.0 10.0 0.00 0.00 0.00 84 1017.6
20260830064025 63 117 7.0 11.0 0.00 0.00 0.00 83 1017.5
20260830063526 63 111 8.0 11.0 0.00 0.00 0.00 84 1017.5
20260830063023 64 105 7.0 10.0 0.00 0.00 0.00 84 1017.4
20260830062524 64 115 3.0 9.0 0.00 0.00 0.00 85 1017.5
20260830062024 63 105 6.0 9.0 0.00 0.00 0.00 83 1017.5
20260830061523 64 117 4.0 7.0 0.00 0.00 0.00 86 1017.5
20260830061023 64 116 4.0 10.0 0.00 0.00 0.00 85 1017.5
20260830060527 63 112 6.0 11.0 0.00 0.00 0.00 84 1017.5
20260830060023 64 120 6.0 11.0 0.00 0.00 0.00 85 1017.4
20260830055522 64 109 5.0 9.0 0.00 0.00 0.00 87 1017.3
20260830055022 64 117 2.0 10.0 0.00 0.00 0.00 86 1017.3
20260830054536 64 124 7.0 10.0 0.00 0.00 0.00 85 1017.2
20260830054023 64 115 6.0 9.0 0.00 0.00 0.00 86 1017.2
20260830053521 64 123 4.0 9.0 0.00 0.00 0.00 87 1017.2
20260830053020 63 137 5.0 9.0 0.00 0.00 0.00 85 1017.2
20260830052519 64 121 5.0 7.0 0.00 0.00 0.00 85 1017.1
20260830052019 64 111 4.0 7.0 0.00 0.00 0.00 85 1017.0
20260830051519 64 113 5.0 7.0 0.00 0.00 0.00 86 1017.0
20260830051019 64 104 4.0 8.0 0.00 0.00 0.00 85 1017.0
20260830050518 64 113 6.0 9.0 0.00 0.00 0.00 85 1017.1
20260830050018 64 112 7.0 9.0 0.00 0.00 0.00 85 1017.2
20260830045521 64 121 5.0 8.0 0.00 0.00 0.00 85 1017.3
20260830045018 64 108 6.0 8.0 0.00 0.00 0.00 85 1017.3
20260830044524 64 117 5.0 8.0 0.00 0.00 0.00 86 1017.3
20260830044017 64 109 6.0 8.0 0.00 0.00 0.00 86 1017.3
20260830043520 64 109 4.0 7.0 0.00 0.00 0.00 86 1017.2
20260830043019 64 111 5.0 7.0 0.00 0.00 0.00 86 1017.2
20260830042516 64 109 5.0 8.0 0.00 0.00 0.00 86 1017.1
20260830042019 64 103 6.0 8.0 0.00 0.00 0.00 86 1017.1
20260830041524 64 117 4.0 8.0 0.00 0.00 0.00 86 1017.2
20260830041017 64 112 4.0 7.0 0.00 0.00 0.00 86 1017.2
20260830040515 64 113 4.0 7.0 0.00 0.00 0.00 85 1017.2
20260830040018 64 109 5.0 7.0 0.00 0.00 0.00 85 1017.2
20260830035515 64 108 4.0 7.0 0.00 0.00 0.00 84 1017.2
20260830035019 64 111 4.0 7.0 0.00 0.00 0.00 84 1017.1
20260830034514 64 113 6.0 9.0 0.00 0.00 0.00 84 1017.2
20260830034013 64 109 6.0 9.0 0.00 0.00 0.00 84 1017.1
20260830033514 64 98 6.0 9.0 0.00 0.00 0.00 83 1017.2